Falls City, NE

7:04 PM CDT on August 29, 2016 (GMT -0500)
Brenner

Weather History for KFNB - April, 2014

Change the Weather History Date:

Thursday, April 17, 2014

  Actual Average Record
Temperature  
Mean Temperature 45 °F -  
Max Temperature 55 °F 69 °F 87 °F (1954)
Min Temperature 35 °F 41 °F 26 °F (1990)
Degree Days  
Heating Degree Days 20    
Moisture  
Dew Point 28 °F    
Average Humidity 58    
Maximum Humidity 76    
Minimum Humidity 35    
Precipitation  
Precipitation 0.00 in - - ()
Sea Level Pressure  
Sea Level Pressure 30.27 in    
Wind  
Wind Speed 10 mph (NNW)    
Max Wind Speed 17 mph    
Max Gust Speed 23 mph    
Visibility 10 miles    
Events      
Averages and records for this station are not official NWS values.
T = Trace of Precipitation, MM = Missing Value Source: NWS Daily Summary

Daily Weather History Graph

Daily Weather History Graph

Search for Another Location

Airport or City:

Trip Planner

Search our weather history database for the weather conditions in past years. The results will help you decide how hot, cold, wet, or windy it might be!

Date:

Astronomy

Apr. 17, 2014 Rise Set
Actual Time 6:41 AM CDT 8:03 PM CDT
Civil Twilight 6:13 AM CDT 8:31 PM CDT
Nautical Twilight 5:39 AM CDT 9:05 PM CDT
Astronomical Twilight 5:03 AM CDT 9:41 PM CDT
Moon 10:49 PM CDT (4/17) 8:13 AM CDT (4/17)
Length of Visible Light 14h 18m
Length of Day
13h 21m
Waning Gibbous, 93% of the Moon is Illuminated
Apr 17
Waning Gibbous
Apr 22
Last Quarter
Apr 29
New
May 6
First Quarter
May 14
Full

Hourly Weather History & Observations

Time (CDT) Temp. Windchill Dew Point Humidity Pressure Visibility Wind Dir Wind Speed Gust Speed Precip Events Conditions
12:53 AM 37.9 °F 30.5 °F 30.0 °F 73% 30.13 in 10.0 mi NW 11.5 mph - N/A   Mostly Cloudy
1:53 AM 37.9 °F 29.2 °F 28.9 °F 70% 30.15 in 10.0 mi NNW 15.0 mph 20.7 mph N/A   Overcast
2:53 AM 37.0 °F 28.5 °F 28.9 °F 73% 30.17 in 10.0 mi NNW 13.8 mph 23.0 mph N/A   Overcast
3:53 AM 36.0 °F 26.0 °F 28.0 °F 73% 30.19 in 10.0 mi NNW 17.3 mph 23.0 mph N/A   Overcast
4:53 AM 36.0 °F 28.0 °F 28.0 °F 73% 30.22 in 10.0 mi NNW 11.5 mph - N/A   Overcast
5:53 AM 35.1 °F 27.4 °F 28.0 °F 76% 30.23 in 10.0 mi NNW 10.4 mph - N/A   Overcast
6:53 AM 35.1 °F 26.9 °F 27.0 °F 72% 30.25 in 10.0 mi NNW 11.5 mph - N/A   Overcast
7:53 AM 35.1 °F 27.9 °F 27.0 °F 72% 30.30 in 10.0 mi NNW 9.2 mph - N/A   Overcast
8:53 AM 36.0 °F 29.6 °F 28.0 °F 73% 30.33 in 10.0 mi NNW 8.1 mph - N/A   Overcast
9:53 AM 36.0 °F 28.5 °F 27.0 °F 70% 30.34 in 10.0 mi NNW 10.4 mph - N/A   Overcast
10:53 AM 39.0 °F 31.8 °F 27.0 °F 62% 30.35 in 10.0 mi North 11.5 mph - N/A   Mostly Cloudy
11:03 AM 41.0 °F 34.3 °F 28.0 °F 60% 30.32 in 10.0 mi NNE 11.5 mph 18.4 mph N/A   Scattered Clouds
11:53 AM 42.8 °F 38.6 °F 28.4 °F 57% 30.32 in 10.0 mi Variable 6.9 mph - N/A   Clear
12:53 PM 46.0 °F 41.4 °F 28.0 °F 50% 30.32 in 10.0 mi North 9.2 mph - N/A   Clear
1:53 PM 48.9 °F - 28.9 °F 46% 30.31 in 10.0 mi Variable 4.6 mph - N/A   Clear
2:53 PM 52.0 °F - 30.0 °F 43% 30.30 in 10.0 mi Variable 4.6 mph - N/A   Clear
3:53 PM 53.1 °F - 28.9 °F 40% 30.27 in 10.0 mi Variable 3.5 mph - N/A   Clear
4:53 PM 55.0 °F - 28.9 °F 37% 30.26 in 10.0 mi SE 3.5 mph - N/A   Clear
5:53 PM 55.0 °F - 28.0 °F 35% 30.26 in 10.0 mi Calm Calm - N/A   Clear
6:53 PM 53.1 °F - 28.9 °F 40% 30.26 in 10.0 mi Calm Calm - N/A   Clear
7:53 PM 51.1 °F - 28.9 °F 43% 30.26 in 9.0 mi ESE 4.6 mph - N/A   Clear
8:53 PM 48.9 °F - 28.0 °F 44% 30.27 in 10.0 mi SE 4.6 mph - N/A   Clear
9:53 PM 46.9 °F - 27.0 °F 46% 30.28 in 10.0 mi Calm Calm - N/A   Clear
10:53 PM 43.0 °F - 28.0 °F 56% 30.28 in 10.0 mi Calm Calm - N/A   Clear
11:53 PM 41.0 °F 39.0 °F 28.9 °F 62% 30.28 in 10.0 mi South 3.5 mph - N/A   Clear